User: anonymous   Login
Location: New Plymouth
(39.0670°S, 174.0830°E)
Time: 19:13:31
(UTC+12:00)
Language:

NOAA 19 - Orbit

View from above orbital plane
View from above orbital plane
View from above satellite
View from above satellite

Ground track
Ground track

The orbit data is extracted from the following two-line orbital elements,

1 33591U 09005A   19236.91843028 +.00000058 +00000-0 +56960-4 0  9994
2 33591 099.1838 229.6804 0013785 185.7950 174.3063 14.12372806543135
Epoch (UTC): 24 August 2019 22:02:32
Eccentricity: 0.0013785
inclination: 99.1838°
perigee height: 841 km
apogee height: 861 km
right ascension of ascending node: 229.6804°
argument of perigee: 185.7950°
revolutions per day: 14.12372806
mean anomaly at epoch: 174.3063°
orbit number at epoch: 54313

The dashed part of the orbit path shows where the satellite is in the earth's shadow,  

DLR